This demonstration page uses our WeatherBlox Daily Observations layout. Learn more.

Left ArrowRight Arrow

41.55636, -103.73856

Hourly Observations for February 26, 2016

Temp ( °F °C ) Dew Point ( °F °C ) Humidity (%) Winds ( mph kmh ) Pressure ( in mb ) Visibility ( mi km ) Precip ( " mm )
12:53 am 00:53 Clear 27 -2.8 16 -8.9 63 63 NW 7 11 30.24 1024 10 16.0934 N/A
1:53 am 01:53 Clear 25 -3.9 16 -8.9 69 69 NW 8 13 30.25 1024 10 16.0934 N/A
2:53 am 02:53 Clear 24 -4.4 15 -9.4 68 68 NNW 7 11 30.24 1024 10 16.0934 N/A
3:53 am 03:53 Clear 24 -4.4 16 -8.9 71 71 NW 8 13 30.26 1025 10 16.0934 N/A
4:53 am 04:53 Clear 22 -5.6 15 -9.4 75 75 NNW 9 15 30.28 1025 10 16.0934 N/A
5:53 am 05:53 Clear 21 -6.1 15 -9.4 78 78 NNW 7 11 30.33 1027 10 16.0934 N/A
6:53 am 06:53 Sunny 23 -5 16 -8.9 74 74 NW 9 15 30.35 1028 10 16.0934 N/A
7:53 am 07:53 Sunny 32 undefined 20 -6.7 61 61 NW 9 15 30.33 1027 10 16.0934 N/A
8:53 am 08:53 Sunny 39 3.9 21 -6.1 48 48 NW 12 19 30.32 1027 10 16.0934 N/A
9:53 am 09:53 Sunny 46 7.8 22 -5.6 38 38 W 12 19 30.28 1025 10 16.0934 N/A
10:53 am 10:53 Sunny 52 11.1 19 -7.2 27 27 W 13 20 30.25 1024 10 16.0934 N/A
11:53 am 11:53 Sunny 56 13.3 16 -8.9 21 21 WNW 13 20 30.23 1024 10 16.0934 N/A
12:53 pm 12:53 Sunny 59 15 13 -10.6 16 16 NW 13 20 30.17 1022 10 16.0934 N/A
1:53 pm 13:53 Sunny 60 15.6 15 -9.4 17 17 W 9 15 30.15 1021 10 16.0934 N/A
2:53 pm 14:53 Sunny 61 16.1 12 -11.1 14 14 W 9 15 30.13 1020 10 16.0934 N/A
3:53 pm 15:53 Sunny 62 16.7 12 -11.1 14 14 NW 5 7 30.11 1020 10 16.0934 N/A
4:53 pm 16:53 Sunny 61 16.1 12 -11.1 14 14 N 3 6 30.09 1019 10 16.0934 N/A
5:53 pm 17:53 Clear 46 7.8 15 -9.4 29 29 ESE 6 9 30.13 1020 10 16.0934 N/A
6:53 pm 18:53 Clear 45 7.2 17 -8.3 33 33 S 6 9 30.13 1020 10 16.0934 N/A
7:53 pm 19:53 Clear 46 7.8 18 -7.8 32 32 WNW 9 15 30.09 1019 10 16.0934 N/A
8:53 pm 20:53 Clear 46 7.8 19 -7.2 34 34 WNW 7 11 30.07 1018 10 16.0934 N/A
9:53 pm 21:53 Clear 35 1.7 19 -7.2 52 52 N N/A 30.07 1018 10 16.0934 N/A
10:53 pm 22:53 Clear 35 1.7 18 -7.8 50 50 NNE 3 6 30.04 1017 10 16.0934 N/A
11:53 pm 23:53 Clear 33 0.6 18 -7.8 54 54 N 3 6 30.03 1017 10 16.0934 N/A

Powered by AerisWeather